Карточка аэропорта UIAA

Внимание!
Информация на этой странице в стадии наполнения.
Если вы не увидели какой-то информации, или заметили неточность - пожалуйста сообщите нам!
Спасибо!
Команда RU-STAFF
Название аэропортаКадала
Название аэропорта (англ.)Kadala
Превышение2271 ft. (692.2 m.)
Координаты52°1.5779999999999', 113°18.3'
Высота перехода1800m
Эшелон переходаFL100
Коды ответчика3350-3377
Зона ОрВДИркутск РПИ (UIII)
Данные METARUIAA 160730Z 32005MPS 9999 NSC 25/M02 Q1002 R29/CLRD70 NOSIG RMK QFE693/0925
Проноз погоды (TAF)UIAA 160500Z 1606/1706 34006G13MPS 9999 SCT040CB TEMPO 1606/1706 04003G08MPS
NOTAMshow/hide NOTAM
AWOS   TABLE

Информация о ВПП


Диспетчерские позиции

Позывной Наименование органа УВД Частота
UIAA_TWRЧита-Вышка118.2
UIAA_APPЧита-Подход122.0



Спутниковое изображение